Overview Statistics Trail Chart Weather Telemetry Raw packets
 

This is the latest recevied weather packets stored in our database for station/object DL4MGC-10. If no packets are shown the sender has not sent any weather packets the latest 10 day(s).

<< 8 9 10 11 12 13 14 >>
Time Temp. Humidity Pressure Rain* Wind** Luminosity Snow
1788486147 18.89° C 81% 1021.1 hPa - - - -
1788485247 18.89° C 78% 1021.2 hPa - - - -
1788484346 18.89° C 79% 1021.2 hPa - - - -
1788483446 18.89° C 81% 1021.4 hPa - - - -
1788482546 18.89° C 80% 1021.5 hPa - - - -
1788481646 18.89° C 81% 1021.5 hPa - - - -
1788480745 18.89° C 80% 1021.4 hPa - - - -
1788479845 18.89° C 80% 1021.6 hPa - - - -
1788478945 18.89° C 80% 1021.8 hPa - - - -
1788478045 20.56° C 73% 1021.8 hPa - - - -
1788477145 20° C 74% 1021.7 hPa - - - -
1788476245 20° C 73% 1021.8 hPa - - - -
1788475345 20.56° C 71% 1021.9 hPa - - - -
1788474444 21.11° C 69% 1021.9 hPa - - - -
1788473544 21.67° C 68% 1021.9 hPa - - - -
1788472644 21.67° C 70% 1021.9 hPa - - - -
1788471744 21.67° C 66% 1022 hPa - - - -
1788470844 21.67° C 66% 1021.8 hPa - - - -
1788469944 21.67° C 66% 1021.7 hPa - - - -
1788469044 22.22° C 66% 1021.8 hPa - - - -
1788468144 22.22° C 64% 1021.5 hPa - - - -
1788467244 22.78° C 64% 1021.7 hPa - - - -
1788466343 22.78° C 63% 1021.8 hPa - - - -
1788465443 22.78° C 62% 1021.9 hPa - - - -
1788464543 23.33° C 59% 1021.6 hPa - - - -

* Rain since midnight (hover to see other rain measurements)
** Current wind speed in m/s (hover to see current wind gust speed)